This is the latest recevied weather packets stored in our database for station/object W4DHW-4. If no packets are shown the sender has not sent any weather packets the latest 1 day(s).
| Time | Temp. | Humidity | Pressure | Rain* | Wind** | Luminosity | Snow |
|---|---|---|---|---|---|---|---|
| 1777979978 | 8.89° C | 94% | 1015.1 hPa | 0 mm | 0.45 m/s, 273° | 62 W/m² | - |
| 1777979672 | 8.89° C | 94% | 1015.3 hPa | 0 mm | 0.89 m/s, 307° | 55 W/m² | - |
| 1777979369 | 8.33° C | 95% | 1015.1 hPa | 0 mm | 0.45 m/s, 293° | 50 W/m² | - |
| 1777979066 | 8.33° C | 95% | 1014.7 hPa | 0 mm | 0.45 m/s, 281° | 43 W/m² | - |
| 1777978762 | 8.33° C | 95% | 1014.7 hPa | 0 mm | 1.34 m/s, 313° | 37 W/m² | - |
| 1777978459 | 7.78° C | 96% | 1014.7 hPa | 0 mm | 1.34 m/s, 300° | 32 W/m² | - |
| 1777978155 | 7.78° C | 95% | 1014.4 hPa | 0 mm | 0.45 m/s, 296° | 20 W/m² | - |
| 1777977852 | 7.78° C | 95% | 1014.6 hPa | 0 mm | 0.89 m/s, 292° | 15 W/m² | - |
| 1777977548 | 7.78° C | 95% | 1014.4 hPa | 0 mm | 0.45 m/s, 318° | 10 W/m² | - |
| 1777977247 | 7.78° C | 95% | 1014.7 hPa | 0 mm | 0 m/s | 6 W/m² | - |
| 1777976943 | 8.33° C | 95% | 1014.8 hPa | 0 mm | 0.45 m/s, 292° | 5 W/m² | - |
| 1777976640 | 8.33° C | 95% | 1014.7 hPa | 0 mm | 0.45 m/s, 305° | 3 W/m² | - |
| 1777976336 | 8.33° C | 95% | 1014.6 hPa | 0 mm | 0 m/s | 2 W/m² | - |
| 1777976031 | 8.33° C | 95% | 1014.7 hPa | 0 mm | 0 m/s | 0 W/m² | - |
| 1777975727 | 8.33° C | 95% | 1014.5 hPa | 0 mm | 0.89 m/s, 296° | 0 W/m² | - |
| 1777975424 | 8.33° C | 95% | 1014.5 hPa | 0 mm | 0.45 m/s, 298° | 0 W/m² | - |
| 1777975120 | 8.33° C | 95% | 1014.5 hPa | 0 mm | 0.89 m/s, 296° | 0 W/m² | - |
| 1777974818 | 8.33° C | 95% | 1014.4 hPa | 0 mm | 0.45 m/s, 300° | 0 W/m² | - |
| 1777974513 | 8.33° C | 95% | 1014.5 hPa | 0 mm | 0.89 m/s, 312° | 0 W/m² | - |
| 1777974211 | 8.33° C | 95% | 1014.6 hPa | 0 mm | 0.89 m/s, 295° | 0 W/m² | - |
| 1777973906 | 8.33° C | 95% | 1014.3 hPa | 0 mm | 0.89 m/s, 312° | 0 W/m² | - |
| 1777973604 | 8.33° C | 95% | 1014.2 hPa | 0 mm | 0.45 m/s, 275° | 0 W/m² | - |
| 1777973300 | 8.33° C | 95% | 1014.4 hPa | 0 mm | 0.89 m/s, 300° | 0 W/m² | - |
| 1777972999 | 8.33° C | 95% | 1014.5 hPa | 0 mm | 0.45 m/s, 295° | 0 W/m² | - |
| 1777972696 | 8.33° C | 95% | 1014.5 hPa | 0 mm | 0.89 m/s, 284° | 0 W/m² | - |
* Rain latest hour (hover to see other rain measurements)
** Current wind speed in m/s (hover to see current wind gust speed)